• In Hungary
  • List of Countries
  • For 7 days
  • Water Temperature
  • Satellite Maps
  • Weather Map
  • News
  • Weather Widgets
  • user-avatar
    Login

    Hourly Weather Konispol

    Today, 19 July, Thursday

    Time Temperature Precipitation Wind Pressure Humidity
    00:00 +20°C° 0 mm 4 mps 731 mmHg 69%
    01:00 +20°C° 0 mm 4 mps 730 mmHg 66%
    02:00 +20°C° 0 mm 3 mps 730 mmHg 65%
    03:00 +20°C° 0 mm 3 mps 730 mmHg 64%
    04:00 +19°C° 0 mm 3 mps 730 mmHg 64%
    05:00 +21°C° 0 mm 3 mps 731 mmHg 59%
    06:00 +24°C° 0 mm 3 mps 731 mmHg 55%
    07:00 +26°C° 0 mm 3 mps 730 mmHg 47%
    08:00 +28°C° 0 mm 4 mps 730 mmHg 43%
    09:00 +29°C° 0 mm 4 mps 731 mmHg 40%
    10:00 +32°C° 0 mm 5 mps 731 mmHg 36%
    11:00 +32°C° 0 mm 6 mps 731 mmHg 36%
    12:00 +33°C° 0 mm 6 mps 731 mmHg 36%
    13:00 +33°C° 0 mm 7 mps 731 mmHg 36%
    14:00 +33°C° 0 mm 7 mps 731 mmHg 38%
    15:00 +32°C° 0 mm 7 mps 730 mmHg 40%
    16:00 +32°C° 0 mm 7 mps 730 mmHg 42%
    17:00 +29°C° 0 mm 6 mps 730 mmHg 49%
    18:00 +27°C° 0 mm 5 mps 730 mmHg 56%
    19:00 +25°C° 0 mm 5 mps 730 mmHg 64%
    20:00 +23°C° 0 mm 5 mps 730 mmHg 65%
    21:00 +22°C° 0 mm 4 mps 731 mmHg 66%
    22:00 +22°C° 0 mm 4 mps 731 mmHg 67%
    23:00 +21°C° 0 mm 3 mps 731 mmHg 68%

    Tomorrow, 20 July, Friday

    Time Temperature Precipitation Wind Pressure Humidity
    00:00 +21°C° 0 mm 3 mps 731 mmHg 69%
    01:00 +21°C° 0 mm 3 mps 731 mmHg 70%
    02:00 +21°C° 0 mm 3 mps 731 mmHg 70%
    03:00 +21°C° 0 mm 3 mps 730 mmHg 71%
    04:00 +21°C° 0 mm 3 mps 730 mmHg 72%
    05:00 +22°C° 0 mm 3 mps 730 mmHg 67%
    06:00 +25°C° 0 mm 2 mps 731 mmHg 63%
    07:00 +27°C° 0 mm 2 mps 731 mmHg 58%
    08:00 +28°C° 0 mm 3 mps 731 mmHg 53%
    09:00 +30°C° 0 mm 3 mps 731 mmHg 48%
    10:00 +31°C° 0 mm 3 mps 731 mmHg 42%
    11:00 +33°C° 0 mm 4 mps 731 mmHg 42%
    12:00 +33°C° 0 mm 4 mps 731 mmHg 42%
    13:00 +33°C° 0 mm 5 mps 731 mmHg 41%
    14:00 +33°C° 0 mm 5 mps 731 mmHg 44%
    15:00 +33°C° 0 mm 5 mps 731 mmHg 46%
    16:00 +32°C° 0 mm 5 mps 731 mmHg 48%
    17:00 +30°C° 0 mm 4 mps 731 mmHg 54%
    18:00 +28°C° 0 mm 4 mps 731 mmHg 60%
    19:00 +27°C° 0 mm 4 mps 731 mmHg 66%
    20:00 +26°C° 0 mm 4 mps 731 mmHg 68%
    21:00 +25°C° 0 mm 3 mps 731 mmHg 69%
    22:00 +25°C° 0 mm 3 mps 732 mmHg 71%
    23:00 +24°C° 0 mm 3 mps 732 mmHg 71%

    Day after tomorrow, 21 July, Saturday

    Time Temperature Precipitation Wind Pressure Humidity
    00:00 +24°C° 0 mm 2 mps 732 mmHg 72%
    01:00 +24°C° 0 mm 2 mps 732 mmHg 73%
    02:00 +23°C° 0 mm 2 mps 732 mmHg 74%
    03:00 +23°C° 0 mm 2 mps 731 mmHg 74%
    04:00 +23°C° 0 mm 2 mps 731 mmHg 75%
    05:00 +25°C° 0 mm 2 mps 732 mmHg 70%
    06:00 +26°C° 0 mm 2 mps 732 mmHg 65%
    07:00 +28°C° 0 mm 2 mps 732 mmHg 60%
    08:00 +30°C° 0 mm 2 mps 732 mmHg 53%
    09:00 +31°C° 0 mm 2 mps 732 mmHg 46%
    10:00 +34°C° 0 mm 2 mps 732 mmHg 38%
    11:00 +35°C° 0 mm 3 mps 732 mmHg 36%
    12:00 +35°C° 0 mm 4 mps 732 mmHg 34%
    13:00 +36°C° 0 mm 4 mps 732 mmHg 32%
    14:00 +35°C° 0 mm 4 mps 732 mmHg 33%
    15:00 +35°C° 0 mm 4 mps 732 mmHg 35%
    16:00 +35°C° 0 mm 4 mps 732 mmHg 36%
    17:00 +33°C° 0 mm 4 mps 732 mmHg 43%
    18:00 +30°C° 0 mm 4 mps 732 mmHg 49%
    19:00 +27°C° 0 mm 3 mps 732 mmHg 56%
    20:00 +27°C° 0 mm 3 mps 732 mmHg 56%
    21:00 +26°C° 0 mm 3 mps 732 mmHg 57%
    22:00 +25°C° 0 mm 2 mps 732 mmHg 57%
    23:00 +25°C° 0 mm 2 mps 732 mmHg 55%

    22 July, Sunday

    Time Temperature Precipitation Wind Pressure Humidity
    00:00 +24°C° 0 mm 2 mps 732 mmHg 54%
    01:00 +24°C° 0 mm 2 mps 732 mmHg 52%
    02:00 +24°C° 0 mm 2 mps 732 mmHg 50%
    03:00 +24°C° 0 mm 2 mps 732 mmHg 47%
    04:00 +24°C° 0 mm 1 mps 732 mmHg 45%
    05:00 +25°C° 0 mm 2 mps 732 mmHg 43%
    06:00 +27°C° 0 mm 2 mps 732 mmHg 42%
    07:00 +29°C° 0 mm 2 mps 732 mmHg 40%
    08:00 +31°C° 0 mm 2 mps 731 mmHg 36%
    09:00 +34°C° 0 mm 3 mps 731 mmHg 33%
    10:00 +36°C° 0 mm 3 mps 731 mmHg 29%
    11:00 +36°C° 0 mm 3 mps 731 mmHg 29%
    12:00 +37°C° 0 mm 4 mps 731 mmHg 29%
    13:00 +37°C° 0 mm 4 mps 731 mmHg 29%
    14:00 +36°C° 0 mm 4 mps 730 mmHg 31%
    15:00 +35°C° 0 mm 4 mps 730 mmHg 33%
    16:00 +35°C° 0 mm 4 mps 730 mmHg 35%
    17:00 +33°C° 0 mm 3 mps 730 mmHg 43%
    18:00 +30°C° 0 mm 3 mps 730 mmHg 51%
    19:00 +27°C° 0 mm 2 mps 730 mmHg 59%
    20:00 +27°C° 0 mm 3 mps 730 mmHg 61%
    21:00 +26°C° 0 mm 3 mps 730 mmHg 62%
    22:00 +25°C° 0 mm 4 mps 730 mmHg 64%
    23:00 +24°C° 0 mm 3 mps 730 mmHg 62%

    23 July, Monday

    Time Temperature Precipitation Wind Pressure Humidity
    00:00 +24°C° 0 mm 2 mps 729 mmHg 59%
    01:00 +24°C° 0 mm 2 mps 729 mmHg 57%
    02:00 +24°C° 0 mm 2 mps 729 mmHg 59%
    03:00 +24°C° 0 mm 1 mps 729 mmHg 62%
    04:00 +24°C° 0 mm 1 mps 729 mmHg 64%
    05:00 +25°C° 0 mm 1 mps 729 mmHg 64%
    06:00 +26°C° 0 mm 1 mps 729 mmHg 64%
    07:00 +27°C° 0 mm 1 mps 729 mmHg 64%
    08:00 +28°C° 0 mm 1 mps 729 mmHg 57%
    09:00 +30°C° 0 mm 1 mps 729 mmHg 50%
    10:00 +31°C° 0 mm 2 mps 729 mmHg 42%
    11:00 +33°C° 0.1 mm 3 mps 728 mmHg 42%
    12:00 +33°C° 0.1 mm 4 mps 728 mmHg 42%
    13:00 +33°C° 0.1 mm 4 mps 728 mmHg 42%
    14:00 +32°C° 0.7 mm 4 mps 728 mmHg 46%
    15:00 +30°C° 0.7 mm 3 mps 728 mmHg 50%
    16:00 +29°C° 0.7 mm 2 mps 727 mmHg 54%
    17:00 +28°C° 0.3 mm 2 mps 727 mmHg 59%
    18:00 +26°C° 0.3 mm 2 mps 727 mmHg 64%
    19:00 +25°C° 0.3 mm 3 mps 727 mmHg 69%
    20:00 +24°C° 0.2 mm 3 mps 727 mmHg 71%
    21:00 +22°C° 0.2 mm 3 mps 728 mmHg 74%
    22:00 +22°C° 0.2 mm 3 mps 728 mmHg 77%
    23:00 +21°C° 0 mm 3 mps 727 mmHg 78%

    24 July, Tuesday

    Time Temperature Precipitation Wind Pressure Humidity
    00:00 +21°C° 0 mm 4 mps 727 mmHg 80%
    01:00 +20°C° 0 mm 4 mps 727 mmHg 82%
    02:00 +20°C° 0 mm 3 mps 727 mmHg 83%
    03:00 +20°C° 0 mm 3 mps 726 mmHg 84%
    04:00 +19°C° 0 mm 3 mps 726 mmHg 85%
    05:00 +20°C° 0 mm 3 mps 727 mmHg 80%
    06:00 +23°C° 0 mm 2 mps 727 mmHg 74%
    07:00 +24°C° 0 mm 2 mps 727 mmHg 69%
    08:00 +26°C° 0 mm 2 mps 727 mmHg 62%
    09:00 +27°C° 0 mm 3 mps 727 mmHg 56%
    10:00 +29°C° 0 mm 3 mps 727 mmHg 50%
    11:00 +29°C° 0.1 mm 3 mps 727 mmHg 50%
    12:00 +29°C° 0.1 mm 4 mps 727 mmHg 51%
    13:00 +29°C° 0.1 mm 4 mps 727 mmHg 51%
    14:00 +29°C° 0.4 mm 4 mps 727 mmHg 53%
    15:00 +29°C° 0.4 mm 4 mps 727 mmHg 56%
    16:00 +28°C° 0.4 mm 5 mps 727 mmHg 58%
    17:00 +27°C° 0.2 mm 4 mps 727 mmHg 63%
    18:00 +26°C° 0.2 mm 4 mps 727 mmHg 67%
    19:00 +25°C° 0.2 mm 4 mps 727 mmHg 72%
    20:00 +24°C° 0 mm 3 mps 728 mmHg 74%
    21:00 +24°C° 0 mm 3 mps 728 mmHg 75%
    22:00 +22°C° 0 mm 3 mps 728 mmHg 77%
    23:00 +22°C° 0 mm 3 mps 728 mmHg 77%
    Show more